FW9014 Weather Reports


Display with metric or nautical units.
time (UTC)temp
F
wind
direction
speed
MPH
gust
MPH
rain 1hr
in
rain 24hr
in
rain mn
in
humidity
%
barometer
mb
20260903223059 81 185 7.0 9.0 0.00 0.95 0.44 91 1013.3
20260903221600 81 202 7.0 10.0 0.01 0.95 0.44 91 1013.4
20260903220059 81 191 6.0 10.0 0.01 0.95 0.44 90 1013.5
20260903214606 81 182 7.0 11.0 0.01 0.96 0.44 89 1013.5
20260903213100 81 200 8.0 10.0 0.01 0.96 0.44 88 1013.6
20260903211557 81 211 9.0 11.0 0.00 0.95 0.43 90 1013.7
20260903210101 81 222 10.0 16.0 0.00 0.95 0.43 89 1013.9
20260903204557 83 206 7.0 8.0 0.00 0.97 0.43 83 1014.2
20260903203102 84 182 8.0 11.0 0.00 0.97 0.43 82 1014.4
20260903201600 84 117 1.0 4.0 0.00 0.97 0.43 82 1014.5
20260903200057 84 110 2.0 7.0 0.00 0.97 0.43 83 1014.4
20260903194554 84 66 1.0 8.0 0.00 0.99 0.43 84 1014.4
20260903193058 84 0 1.0 6.0 0.00 0.99 0.43 84 1014.7
20260903191558 83 5 7.0 10.0 0.00 0.99 0.43 83 1014.7
20260903190056 82 11 6.0 10.0 0.00 0.99 0.43 84 1014.6
20260903184559 82 360 8.0 14.0 0.00 1.01 0.43 87 1014.6
20260903183100 83 355 12.0 15.0 0.00 1.01 0.43 85 1014.7
20260903181558 85 0 0.0 4.0 0.00 1.01 0.43 82 1015.1
20260903180115 84 135 2.0 5.0 0.00 1.01 0.43 83 1015.4
20260903174602 84 54 1.0 5.0 0.00 1.03 0.43 85 1015.6
20260903173101 84 38 1.0 4.0 0.00 1.03 0.43 85 1015.9
20260903171556 83 22 1.0 5.0 0.01 1.03 0.43 85 1016.0
20260903170059 83 339 0.0 6.0 0.01 1.03 0.43 84 1016.0
20260903164611 83 0 0.0 3.0 0.01 1.04 0.43 83 1016.2
20260903163102 83 175 1.0 4.0 0.01 1.04 0.43 85 1016.1
20260903161601 81 113 2.0 8.0 0.00 1.03 0.42 87 1015.9
20260903160107 81 117 6.0 10.0 0.00 1.03 0.42 86 1015.9
20260903154600 80 283 2.0 7.0 0.00 1.05 0.42 85 1015.3
20260903153109 80 181 5.0 8.0 0.00 1.05 0.42 86 1015.2
20260903151600 80 189 5.0 7.0 0.00 1.05 0.42 88 1015.6
20260903150106 79 222 5.0 11.0 0.00 1.05 0.42 89 1015.6
20260903144600 79 207 8.0 14.0 0.00 1.09 0.42 88 1015.9
20260903143101 78 161 9.0 13.0 0.00 1.09 0.42 90 1015.9
20260903141600 78 170 6.0 11.0 0.00 1.09 0.42 90 1015.7
20260903140100 80 153 8.0 12.0 0.00 1.09 0.42 91 1015.8
20260903134550 79 165 11.0 14.0 0.00 1.14 0.42 92 1015.7
20260903133059 79 138 2.0 5.0 0.42 1.14 0.42 94 1015.5
20260903131559 79 0 0.0 2.0 0.42 1.14 0.42 94 1015.5
20260903130116 79 0 0.0 2.0 0.42 1.14 0.42 94 1015.7
20260903124601 79 0 0.0 2.0 0.42 1.23 0.42 94 1015.5
20260903123056 79 0 0.0 2.0 0.00 0.81 0.00 93 1015.2
20260903121557 79 100 0.0 3.0 0.00 0.81 0.00 93 1015.0
20260903120107 79 107 0.0 4.0 0.00 0.81 0.00 93 1014.9
20260903114559 79 90 1.0 4.0 0.00 0.92 0.00 93 1014.8
20260903113102 79 100 2.0 7.0 0.00 0.92 0.00 92 1014.7
20260903111618 79 101 3.0 7.0 0.00 0.92 0.00 93 1014.5
20260903110120 79 121 2.0 8.0 0.00 0.92 0.00 93 1014.4
20260903104600 80 116 5.0 12.0 0.00 1.04 0.00 94 1014.5
20260903103100 80 147 7.0 12.0 0.00 1.04 0.00 94 1014.5
20260903101605 80 0 0.0 0.0 0.00 1.04 0.00 90 1014.1
20260903100049 80 0 0.0 0.0 0.00 1.04 0.00 90 1014.2
20260903094601 80 0 0.0 0.0 0.00 1.11 0.00 90 1014.1
20260903093056 79 0 0.0 0.0 0.00 1.11 0.00 91 1014.1
20260903091605 78 0 0.0 0.0 0.00 1.11 0.00 91 1014.1
20260903090100 78 0 0.0 0.0 0.00 1.11 0.00 91 1014.0
20260903084600 78 0 0.0 0.0 0.00 1.14 0.00 91 1014.1
20260903083054 79 0 0.0 0.0 0.00 1.14 0.00 91 1013.9
20260903081612 78 0 0.0 0.0 0.00 1.14 0.00 91 1014.0
20260903080059 78 0 0.0 0.0 0.00 1.14 0.00 91 1013.9
20260903074607 78 0 0.0 0.0 0.00 1.16 0.00 91 1013.8
20260903073109 78 0 0.0 0.0 0.00 1.16 0.00 91 1013.7
20260903071556 78 0 0.0 0.0 0.00 1.16 0.00 91 1013.8
20260903064605 76 0 0.0 0.0 0.00 1.21 0.00 91 1014.1
20260903063057 76 0 0.0 0.0 0.00 1.21 0.00 91 1014.1
20260903061601 77 0 0.0 0.0 0.00 1.21 0.00 91 1014.2
20260903060055 77 0 0.0 0.0 0.00 1.21 0.00 91 1014.6
20260903054557 76 0 0.0 0.0 0.00 1.24 0.00 91 1014.6
20260903053112 77 0 0.0 0.0 0.00 1.24 0.00 91 1014.8
20260903051602 77 0 0.0 0.0 0.00 1.24 0.00 92 1014.9
20260903050104 76 0 0.0 0.0 0.00 1.24 0.00 92 1014.5
20260903044605 76 0 0.0 0.0 0.00 1.31 1.24 93 1014.4
20260903043058 76 0 0.0 0.0 0.00 1.31 1.24 93 1014.4
20260903041605 76 0 0.0 0.0 0.00 1.31 1.24 94 1014.5
20260903034558 76 0 0.0 0.0 0.00 1.33 1.24 94 1014.6
20260903033109 76 0 0.0 0.0 0.00 1.33 1.24 94 1014.4
20260903031558 75 0 0.0 0.0 0.01 1.33 1.24 94 1014.6
20260903024555 75 0 0.0 0.0 0.10 1.37 1.24 94 1014.2
20260903023056 75 0 0.0 0.0 0.11 1.37 1.24 94 1014.1
20260903021608 74 0 0.0 0.0 0.10 1.36 1.23 94 1013.8
20260903020058 73 0 0.0 0.0 0.10 1.36 1.23 94 1013.6
20260903014558 73 0 0.0 0.0 0.01 1.27 1.14 94 1013.8
20260903013104 73 0 0.0 0.0 0.00 1.26 1.13 94 1014.2
20260903011619 74 0 0.0 0.0 0.00 1.26 1.13 94 1013.8
20260903010110 75 0 0.0 0.0 0.02 1.26 1.13 94 1013.5
20260903004601 75 0 0.0 0.0 0.10 1.26 1.13 94 1013.2
20260903003048 75 0 0.0 0.0 0.10 1.26 1.13 94 1013.6
20260903001605 76 0 0.0 0.0 0.10 1.26 1.13 93 1013.2
20260903000106 76 0 0.0 0.0 0.08 1.24 1.11 93 1013.6
20260902234554 75 0 0.0 0.0 0.02 1.16 1.03 93 1014.2
20260902233057 75 0 0.0 0.0 0.25 1.16 1.03 93 1013.9
20260902231600 75 0 0.0 0.0 0.30 1.16 1.03 93 1013.6
20260902230058 75 0 0.0 0.0 0.30 1.16 1.03 93 1013.3
20260902224556 75 0 0.0 0.0 0.27 1.13 1.00 93 1012.7